カタログに戻る

STARLINK-11247

運用中通信VLEO
NORAD 60720·PAYLOAD·🇺🇸 United States

打ち上げ Aug 28, 2024 から Cape Canaveral Space Force Station

Loading…

次のパス (今後24時間)

TLE

最新Source: CelesTrak SupGP

元期: Sep 14, 2026, 20:41 UTC

1 60720C 24152A   26257.86229167  .00034795  00000+0  28665-3 0  2576
2 60720  53.1574 264.0186 0001187  88.8440 229.7750 15.69688944    11

AllMySatでSTARLINK-11247をリアルタイム追跡

Download on the App Store